Location: Little Chesterford
(52.0500°N, 0.1833°E)
Time: 05:04:02
(UTC+00:00)

Cosmos 2242 Rocket - Pass Details

Date: 26 September 2023
Orbit: 617 x 649 km, 82.5° (Epoch: 29 November)

Event Time Altitude Azimuth Distance (km) Brightness Sun altitude
Rises 19:21:05 0° 350° (N) 2,932 7.4 -14.8°
Reaches altitude 10° 19:23:20 10° 354° (N) 2,025 6.5 -15.1°
Maximum altitude 19:27:49 68° 77° (ENE) 690 3.5 -15.8°
Enters shadow 19:31:21 16° 159° (SSE) 1,661 5.4 -16.3°
